Regional Weather Roundup
Issued by NWS Cleveland, OH

Home | Current Version | Previous Version | Graphics & Text | Print | Product List | Glossary On
Versions: 1 2 3 4 5 6 7 8 9 10 11 12 13 14 15 16 17 18 19 20 21 22 23 24 25 26 27 28 29 30 31 32 33 34 35 36 37 38 39 40 41 42 43 44 45 46 47 48 49 50
237
ASUS41 KCLE 302102
RWRCLE
OHIO REGIONAL WEATHER ROUNDUP
NATIONAL WEATHER SERVICE CLEVELAND, OH
500 PM EDT TUE AUG 30 2016

NOTE: "FAIR" INDICATES FEW OR NO CLOUDS BELOW 12,000 FEET WITH NO
SIGNIFICANT WEATHER AND/OR OBSTRUCTIONS TO VISIBILITY.

OHZ001>008-015>018-024>027-034-035-043-044-302200-
   NORTHWEST OHIO

CITY           SKY/WX    TMP DP  RH WIND       PRES   REMARKS
DEFIANCE       PTSUNNY   84  69  60 E3        30.07F
FINDLAY        SUNNY     86  64  47 SW5       30.06F HAZE
TOLEDO EXPRESS MOSUNNY   83  64  52 S6        30.07F
TOLEDO EXEC    MOSUNNY   85  59  41 S3        30.07F
LIMA           SUNNY     85  68  56 S3        30.08F
$$

OHZ009>014-019>023-028>033-038-089-302200-
   NORTHEAST OHIO

CITY           SKY/WX    TMP DP  RH WIND       PRES   REMARKS
CLE-HOPKINS    PTSUNNY   84  61  45 N10       30.10F
CLE-LAKEFRONT  PTSUNNY   80  63  55 NE8       30.08F
CUY CO. ARPT   NOT AVBL
LORAIN-ELYRIA  PTSUNNY   84  60  44 CALM      30.09F
ASHTABULA      PTSUNNY   77  66  68 N3        30.10F
AKRON-CANTON   MOSUNNY   86  50  28 SW5       30.10F
WOOSTER        MOSUNNY   82  63  52 S6        30.11F
MANSFIELD      SUNNY     86  60  41 S7        30.11F
YOUNGSTOWN     CLOUDY    83  56  39 NE3       30.11F
$$

OHZ042-051>053-060>062-070>072-077>081-302200-
  SOUTHWEST OHIO

CITY           SKY/WX    TMP DP  RH WIND       PRES   REMARKS
CINC-COVINGTON MOSUNNY   88  62  41 E6        30.07F
CINC-LUNKEN    SUNNY     89  65  44 CALM      30.06F HX  91
HAMILTON       SUNNY     90  61  37 NW5       30.07F HX  90
DAYTON         MOSUNNY   86  66  51 VRB5      30.09F
WRIGHT-PAT AFB SUNNY     87  61  40 E7        30.07F
DAYTON GENERAL SUNNY     86  60  41 S5        30.08F
WILMINGTON     SUNNY     87  64  46 VRB3      30.09F
$$

OHZ036-037-039>041-045>050-054>059-063>069-073>076-082>088-302200-
  CENTRAL AND SOUTHEAST OHIO

CITY           SKY/WX    TMP DP  RH WIND       PRES   REMARKS
COLUMBUS       MOSUNNY   85  61  44 SW3       30.07F
OSU AIRPORT    SUNNY     87  60  40 S5        30.08F
BOLTON FIELD   SUNNY     86  64  48 SW5       30.09F
RICKENBACK AFB SUNNY     86  61  43 SE3       30.07F
NEWARK         SUNNY     87  60  40 W3        30.08F
MARION         SUNNY     85  60  42 S7        30.09F
LANCASTER      SUNNY     88  61  40 VRB3      30.09F
ZANESVILLE     SUNNY     88  58  36 N3        30.09F
NEW PHILLY     SUNNY     91  49  23 SW3       30.09F
$$




USA.gov is the U.S. government's official web portal to all federal, state and local government web resources and services.